Find Starlink 2092

NORAD ID: 47373 Int'l Des: 2021-005 Owner: SPXS Country: US Constellation: starlink operational
LEOCIRCULARSTARLINK_TYPE

实时位置

正在加载3D地球...

关于 Starlink 2092

正在加载描述...

即将过境

Passes for default location (London). Set your location on the main map for personalized predictions.

高度历史

Loading altitude history...

两行轨道根数

1 47373U 21005AA 26122.83863950 -.00000694 00000-0 -10617-4 0 9997
2 47373 53.1594 170.7441 0001015 88.0850 272.0268 15.31697418291322
Epoch: May 2, 2026 • Age: 11 hours

当前状态

高度 473.2 km
速度 7.63 km/s
星下点 37.30°N, 127.59°W
发射日期 Jan 20, 2021
运行时间 5.2 years
类型 internet

技术详情

分类 Payload
质量 260.00 kg
干质量 248.00 kg
总质量 260.00 kg
长度 0.20 m
直径 2.80 m
跨度 9.00 m
形状 Box + pan
制造商 SPXS
平台类型 Starlink
阶段状态 In Orbit
所有者/国家 SPXS/US

Most Searched